Location: Newark
(12.4436°N, 0.6167°W)
Time: 21:54:48
(UTC+00:00)

Vanguard 2 - Pass Details

Date: 14 December 2019
Orbit: 553 x 2938 km, 32.9° (Epoch: 17 January)

Event Time Altitude Azimuth Distance (km) Brightness Sun altitude
Rises 00:26:37 0° 269° (W) 5,014 - -77.1°
Reaches altitude 10° 00:29:46 10° 276° (W) 4,320 - -76.7°
Maximum altitude 00:41:42 43° 344° (NNW) 3,241 - -74.9°
Exits shadow 00:57:23 11° 50° (NE) 5,640 11.9 -72.0°
Drops below altitude 10° 00:57:59 10° 51° (NE) 5,760 11.9 -71.9°
Sets 01:03:03 0° 58° (ENE) 6,774 12.4 -70.9°
